This is the latest recevied weather packets stored in our database for station/object HR1LRC-21. If no packets are shown the sender has not sent any weather packets the latest 10 day(s).
| Time | Temp. | Humidity | Pressure | Rain* | Wind** | Luminosity | Snow |
|---|---|---|---|---|---|---|---|
| 1778009880 | 31.11° C | 24% | 1009 hPa | 0 mm | - | - | - |
| 1778009279 | 27.78° C | 26% | 1010 hPa | 0 mm | - | - | - |
| 1778008679 | 27.78° C | 26% | 1010 hPa | 0 mm | - | - | - |
| 1778008078 | 27.78° C | 25% | 1010 hPa | 0 mm | - | - | - |
| 1778007477 | 27.78° C | 24% | 1010 hPa | 0 mm | - | - | - |
| 1778006877 | 27.78° C | 24% | 1010 hPa | 0 mm | - | - | - |
| 1778006276 | 27.78° C | 26% | 1011 hPa | 0 mm | - | - | - |
| 1778005676 | 26.67° C | 30% | 1012 hPa | 0 mm | - | - | - |
| 1778005075 | 26.11° C | 30% | 1012 hPa | 0 mm | - | - | - |
| 1778004474 | 26.11° C | 30% | 1012 hPa | 0 mm | - | - | - |
| 1778003874 | 26.11° C | 29% | 1012 hPa | 0 mm | - | - | - |
| 1778003273 | 26.11° C | 29% | 1012 hPa | 0 mm | - | - | - |
| 1778002673 | 25.56° C | 32% | 1012 hPa | 0 mm | - | - | - |
| 1778002072 | 25° C | 39% | 1013 hPa | 0 mm | - | - | - |
| 1778001472 | 25° C | 39% | 1013 hPa | 0 mm | - | - | - |
| 1778000871 | 24.44° C | 40% | 1013 hPa | 0 mm | - | - | - |
| 1777999670 | 24.44° C | 38% | 1013 hPa | 0 mm | - | - | - |
| 1777999069 | 24.44° C | 41% | 1013 hPa | 0 mm | - | - | - |
| 1777998469 | 23.33° C | 49% | 1014 hPa | 0 mm | - | - | - |
| 1777997868 | 22.78° C | 48% | 1014 hPa | 0 mm | - | - | - |
| 1777997267 | 22.78° C | 48% | 1014 hPa | 0 mm | - | - | - |
| 1777996667 | 22.78° C | 47% | 1014 hPa | 0 mm | - | - | - |
| 1777996066 | 22.78° C | 47% | 1014 hPa | 0 mm | - | - | - |
| 1777995466 | 22.22° C | 56% | 1014 hPa | 0 mm | - | - | - |
| 1777994865 | 22.22° C | 56% | 1015 hPa | 0 mm | - | - | - |
* Rain latest hour (hover to see other rain measurements)
** Current wind speed in m/s (hover to see current wind gust speed)